STARLINK-1032, 44737

Orbit data source: Space-Track

STARLINK-1032, 44737 is a payload satellite owned by SpaceX/Seattle (US) in LEO that was launched on Mon, 11 Nov 2019 UTC via an FALCON 9 launch vehicle from the Air Force Eastern Test Range (AFETR). Payloads include a variety of satellites, spacecraft, and rockets equipped with specific instruments for various scientific and technological missions. These include communications satellites like Starlink; space stations such as the ISS; scientific satellites like the Hubble; Earth observation satellites from companies like Planet Labs, Umbra, and HawkEye 360; GPS; miniature CubeSats for education and research; and military/defense satellites.

Loading next visibility...
STARLINK-1032 details
Identifier
44737, 2019-074AA
Orbit
LEO
Last TLE update1 day ago
Origin
Flag of USSpaceX/Seattle (US)
ManufacturerSpaceX/Seattle
MissionPartially operational Commercial Communications
Bus & MotorSTARLINK, Unknown motor
Mass260 kg wet, ~248 kg dry
Launch date (UTC)
2019-11-11 (5 years ago)
Launch vehicle
FALCON 9
Launch site
Air Force Eastern Test Range (AFETR)
Object type
Payload
Rocket body
Debris
Shape & HBRBox + 1 Pan, 8.86 m
Radar Cross Section13.562 m², Large (>1 m²)

Expand to show TLE details & history

TLE from 1 day ago
0 STARLINK-1032
1 44737U 19074AA  24360.43240659  .00003818  00000-0  38918-4 0  9997
2 44737  53.0556   5.1202 0001137  59.3604 300.7523 15.67978973282453
Epoch: 2024-12-25T10:22Z
Definitive object data (Epoch: 2024-12-25T10:22:39.929Z)
Latitude-0.00008°
Longitude115.02753°
Altitude365.196 km
Speed7.692 km/s
True Right ascension00h 20m 28s
True Declination0° 00' 00"
Sunlit
Object was in daylight at TLE epoch
Visualization TLE readout
Latitude-47.14481°
Longitude56.34844°
Altitude381.218 km
Speed7.681 km/s
Apparent Right ascension21h 12m 03s
Apparent Declination-44° 00' 06"
Sunlit
Object is in daylight
Visualization observer readout
Local Sidereal Time09:55:31
Azimuth120.382° SE
Elevation-80.953°
Doppler factor1
Orbital elements
Apogee altitude365.729 km
Perigee altitude364.196 km
Semi-major axis6,743.099 km
Eccentricity0.0001137
Inclination53.0556°
RAAN5.1202°
Arg. of periapsis59.3604°
True anomaly300.7411°
Mean anomaly300.7523°
Eccentric anomaly300.7467°
Mean motion3.91971 °/min
BSTAR0.000038918
Orbital period91.84 mins
Loading maneuver chart data...

STARLINK-1032 Visibility forecast

Observer location: undefined°, undefined

Span
Click to sort rows by Start time (UTC) header in descending order
Start Az.
Max El. time (UTC)
Max El. Az.
Max El.
End time (UTC)
End Az.
4 mins2024-12-27 02:19:19.449Z190.177° SSW2024-12-27 02:21:19.449Z131.01° SE27.112°2024-12-27 02:23:19.449Z75.531° E
|